[[{"header":{"parameterUnit":"m.s-1","parameterCategory":2,"la1":30.2992,"la2":30.254,"lo1":-89.0895,"lo2":-89.0443,"dy":0.0025,"dx":0.0025,"nx":19,"ny":19,"refTime":"2026-03-25T21:00:00:Z","depth":"0","parameterNumber":2,"parameterNumberName":"U-component_of_CURRENTS"},"data":[0,0,0,-0.2461,-0.2462,-0.2575,-0.2576,-0.2709,-0.271,0,0,0,0,0,0,0,0,0,0,0,-0.2429,-0.2429,-0.246,-0.2462,-0.2574,-0.2576,-0.2709,-0.271,0,0,0,0,0,0,0,0,0,0,0,-0.2429,-0.2429,-0.2429,-0.2462,-0.2574,-0.2576,-0.2709,-0.2636,0,0,0,0,0,0,0,0,0,0,-0.2532,-0.2483,-0.2429,-0.2429,-0.2462,-0.2574,-0.2576,-0.2633,-0.264,-0.2642,0,-0.2639,0,-0.2655,-0.2715,-0.2715,0,0,0,-0.2502,-0.2477,-0.2504,-0.2429,-0.2463,-0.2574,-0.2535,-0.2638,-0.2646,-0.2652,-0.2641,-0.2646,-0.2657,-0.2715,-0.2716,-0.2534,-0.2531,0,0,-0.2496,-0.246,-0.2498,-0.2508,-0.2464,-0.2531,-0.2538,-0.2643,-0.264,-0.2641,-0.2649,-0.2659,-0.2716,-0.2716,-0.2536,-0.2533,0,0,0,-0.2451,-0.2455,-0.2482,-0.2503,-0.2512,-0.2533,-0.2541,-0.2637,-0.2644,-0.265,-0.2661,-0.2716,-0.2717,-0.2539,-0.2535,-0.2537,0,0,0,-0.2449,-0.2426,-0.2478,-0.246,-0.2509,-0.2574,-0.2532,-0.2638,-0.265,-0.266,-0.2716,-0.2718,-0.2542,-0.2537,-0.2543,-0.2579,0,0,0,-0.2429,-0.2424,-0.2428,-0.2457,-0.2487,-0.2573,-0.2589,-0.2642,-0.2654,-0.2715,-0.2718,-0.2544,-0.2538,-0.2549,-0.2586,-0.2592,0,0,0,-0.2403,-0.2378,-0.2427,-0.2397,-0.2485,-0.2476,-0.2589,-0.2602,-0.264,-0.2716,-0.2541,-0.2535,-0.255,-0.2589,-0.2595,-0.2411,-0.2382,0,0,-0.2354,-0.2371,-0.2352,-0.2398,-0.2384,-0.2465,-0.2432,-0.2537,-0.2539,-0.2521,-0.2518,-0.2541,-0.2586,-0.2593,-0.206,-0.2043,0,0,0,-0.2325,-0.232,-0.2317,-0.2326,-0.2336,-0.2377,-0.2436,-0.2434,-0.2422,-0.2525,-0.2416,-0.2442,-0.245,-0.2338,-0.2321,-0.2219,-0.2507,-0.2508,-0.2508,-0.2236,-0.226,-0.2241,-0.2272,-0.2268,-0.2299,-0.2312,-0.2299,-0.2322,-0.2259,-0.235,-0.2229,-0.2099,-0.2087,-0.198,-0.2221,-0.2221,-0.2221,-0.2221,-0.2178,-0.2169,-0.221,-0.2204,-0.2236,-0.2219,-0.2219,-0.2231,-0.2205,-0.2202,-0.2209,-0.2225,-0.2071,-0.1962,-0.2219,-0.2219,-0.222,-0.222,-0.222,-0.2123,-0.2126,-0.214,-0.2162,-0.2186,-0.2211,-0.2231,-0.2242,-0.2204,-0.2209,-0.2098,-0.2096,-0.2093,-0.2215,-0.2215,-0.2215,-0.2215,-0.2215,-0.2215,-0.2059,-0.208,-0.2092,-0.2133,-0.2165,-0.222,-0.226,-0.2239,-0.2146,-0.2076,-0.2073,-0.1966,-0.2229,-0.2336,-0.2217,-0.2217,-0.2216,-0.2216,-0.2216,-0.1972,-0.2008,-0.2026,-0.2061,-0.2158,-0.2151,-0.2229,-0.208,-0.2064,-0.1948,-0.1753,-0.1992,-0.1994,-0.2002,-0.2098,-0.1927,-0.1927,-0.1926,-0.1926,-0.1913,-0.1935,-0.1967,-0.2028,-0.2102,-0.2121,-0.1959,-0.1833,-0.1642,-0.1517,-0.1578,-0.1495,-0.1511,-0.1484,-0.1503,-0.1588,-0.1291,-0.1291,-0.129,-0.1852,-0.1883,-0.1885,-0.1973,-0.2065,-0.2022,-0.1766,-0.1504,-0.1271,-0.1264,-0.1475,-0.1502,-0.1386,-0.1421,-0.1385,-0.142,-0.1563,0,0]},{"header":{"parameterUnit":"m.s-1","parameterCategory":2,"la1":30.2992,"la2":30.254,"lo1":-89.0895,"lo2":-89.0443,"dy":0.0025,"dx":0.0025,"nx":19,"ny":19,"refTime":"2026-03-25T21:00:00:Z","depth":"0","parameterNumber":3,"parameterNumberName":"V-component_of_CURRENTS"},"data":[0,0,0,-0.0585,-0.0585,-0.0499,-0.0498,-0.0252,-0.0249,0,0,0,0,0,0,0,0,0,0,0,-0.0611,-0.0611,-0.0586,-0.0584,-0.0499,-0.0498,-0.0252,-0.0249,0,0,0,0,0,0,0,0,0,0,0,-0.0611,-0.0611,-0.0611,-0.0584,-0.0499,-0.0498,-0.0253,-0.0344,0,0,0,0,0,0,0,0,0,0,-0.0442,-0.0492,-0.0611,-0.0611,-0.0584,-0.0499,-0.0498,-0.035,-0.0339,-0.0261,0,-0.0267,0,-0.0263,-0.0233,-0.0232,0,0,0,-0.0556,-0.0502,-0.0488,-0.0611,-0.0584,-0.0499,-0.0529,-0.0345,-0.0331,-0.0245,-0.0263,-0.0255,-0.0259,-0.0231,-0.023,-0.0104,-0.0105,0,0,-0.056,-0.0575,-0.0498,-0.0481,-0.0583,-0.0532,-0.0527,-0.0338,-0.0324,-0.0263,-0.025,-0.0255,-0.0229,-0.0227,-0.0104,-0.0104,0,0,0,-0.0593,-0.0579,-0.0571,-0.049,-0.0491,-0.0531,-0.0524,-0.0333,-0.0334,-0.0248,-0.0252,-0.0228,-0.0225,-0.0103,-0.0104,-0.0186,0,0,0,-0.0595,-0.0601,-0.0574,-0.0579,-0.0496,-0.0429,-0.0523,-0.0346,-0.0326,-0.0253,-0.0228,-0.0222,-0.0103,-0.0104,-0.0183,-0.0198,0,0,0,-0.0611,-0.0601,-0.0601,-0.058,-0.0558,-0.0433,-0.0422,-0.0342,-0.0328,-0.0231,-0.0221,-0.0102,-0.0103,-0.0179,-0.0193,-0.0095,0,0,0,-0.0614,-0.0638,-0.0602,-0.0622,-0.056,-0.0534,-0.0423,-0.038,-0.0313,-0.0226,-0.0103,-0.0104,-0.0178,-0.019,-0.0094,0.0019,0.0025,0,0,-0.0652,-0.0642,-0.0656,-0.0623,-0.063,-0.0542,-0.0513,-0.0381,-0.0299,-0.0148,-0.0145,-0.0184,-0.0193,-0.0095,-0.0053,-0.0045,0,0,0,-0.0674,-0.0685,-0.0681,-0.0672,-0.0636,-0.0574,-0.047,-0.041,-0.03,-0.0269,-0.0186,-0.0189,-0.0123,-0.0055,-0.0049,0.0054,-0.011,-0.0109,-0.0109,-0.0724,-0.0716,-0.0732,-0.0712,-0.0682,-0.0589,-0.0525,-0.0418,-0.0343,-0.0326,-0.0259,-0.0246,-0.018,-0.0172,-0.0071,-0.0272,-0.0272,-0.0273,-0.0273,-0.0783,-0.0796,-0.0766,-0.0783,-0.0716,-0.0675,-0.054,-0.0485,-0.0341,-0.0332,-0.0263,-0.0151,-0.0169,-0.0064,-0.0278,-0.0277,-0.0277,-0.0276,-0.0276,-0.0816,-0.0824,-0.083,-0.0837,-0.0799,-0.072,-0.0598,-0.0515,-0.0395,-0.0349,-0.0161,-0.0158,-0.005,-0.0282,-0.0282,-0.0281,-0.0281,-0.0281,-0.0281,-0.0849,-0.0855,-0.0891,-0.0888,-0.0879,-0.0804,-0.0626,-0.0488,-0.0292,-0.0213,-0.021,-0.0034,-0.0245,-0.0227,-0.0276,-0.0277,-0.0277,-0.0278,-0.0278,-0.0898,-0.0902,-0.0958,-0.0967,-0.0914,-0.077,-0.0619,-0.0283,-0.0138,-0.0011,0.0108,-0.0096,-0.0025,-0.0028,-0.0004,0.001,0.001,0.001,0.001,-0.0926,-0.0935,-0.0995,-0.0997,-0.0917,-0.0746,-0.0407,-0.0133,0.0152,0.027,0.028,0.0275,0.0259,0.0346,0.0334,0.0365,0.0472,0.0473,0.0473,-0.0952,-0.0976,-0.1006,-0.1005,-0.0909,-0.0656,-0.0312,0.0064,0.0419,0.0497,0.0398,0.0379,0.037,0.0337,0.0469,0.0444,0.0495,0,0]}],[{"header":{"parameterUnit":"m.s-1","parameterCategory":2,"la1":30.2992,"la2":30.254,"lo1":-89.0895,"lo2":-89.0443,"dy":0.0025,"dx":0.0025,"nx":19,"ny":19,"refTime":"2026-03-25T21:00:00:Z","depth":"2","parameterNumber":2,"parameterNumberName":"U-component_of_CURRENTS"},"data":[0,0,0,-0.2194,-0.2195,-0.2269,-0.2269,-0.2317,-0.2317,0,0,0,0,0,0,0,0,0,0,0,-0.2166,-0.2166,-0.2194,-0.2195,-0.2269,-0.2269,-0.2317,-0.2317,0,0,0,0,0,0,0,0,0,0,0,-0.2166,-0.2166,-0.2166,-0.2195,-0.2269,-0.2269,-0.2317,-0.2276,0,0,0,0,0,0,0,0,0,0,-0.2211,-0.2181,-0.2166,-0.2166,-0.2196,-0.2269,-0.2269,-0.2274,-0.2278,-0.2266,0,-0.2269,0,-0.2288,-0.2318,-0.2318,0,0,0,-0.2208,-0.2177,-0.2202,-0.2166,-0.2196,-0.2268,-0.2239,-0.2277,-0.2281,-0.2271,-0.227,-0.2272,-0.2289,-0.2318,-0.2318,-0.2172,-0.217,0,0,-0.2203,-0.2177,-0.2199,-0.2204,-0.2203,-0.2237,-0.2241,-0.228,-0.2275,-0.227,-0.2274,-0.229,-0.2318,-0.2318,-0.2174,-0.2172,0,0,0,-0.2183,-0.2174,-0.2199,-0.2201,-0.2216,-0.2238,-0.2244,-0.2274,-0.2283,-0.2274,-0.229,-0.2318,-0.2318,-0.2175,-0.2173,-0.2188,0,0,0,-0.2181,-0.2162,-0.2196,-0.2181,-0.2215,-0.225,-0.2236,-0.2281,-0.2286,-0.229,-0.2318,-0.2319,-0.2177,-0.2174,-0.2192,-0.2212,0,0,0,-0.2164,-0.216,-0.2166,-0.218,-0.2207,-0.225,-0.2263,-0.2283,-0.2294,-0.2318,-0.2319,-0.2179,-0.2175,-0.2195,-0.2216,-0.2212,0,0,0,-0.2139,-0.2119,-0.2165,-0.214,-0.2206,-0.2196,-0.2263,-0.2265,-0.2276,-0.2318,-0.2177,-0.2173,-0.2196,-0.2218,-0.2214,-0.2036,-0.2012,0,0,-0.2096,-0.2113,-0.2096,-0.2139,-0.2129,-0.2188,-0.2158,-0.221,-0.2203,-0.2168,-0.2166,-0.2191,-0.2216,-0.2212,-0.1801,-0.1785,0,0,0,-0.207,-0.2066,-0.2065,-0.2075,-0.2087,-0.2117,-0.2149,-0.2145,-0.2124,-0.219,-0.2103,-0.2116,-0.2116,-0.2008,-0.1994,-0.2154,-0.2154,-0.2155,-0.2155,-0.1993,-0.2013,-0.1996,-0.2025,-0.2025,-0.2053,-0.206,-0.2046,-0.2056,-0.2014,-0.2064,-0.1982,-0.186,-0.1849,-0.1981,-0.1981,-0.1981,-0.1981,-0.1981,-0.1939,-0.1929,-0.1967,-0.1962,-0.1995,-0.1982,-0.1988,-0.1999,-0.1973,-0.1972,-0.1971,-0.1946,-0.1835,-0.198,-0.198,-0.198,-0.198,-0.198,-0.198,-0.189,-0.1889,-0.1904,-0.1922,-0.1942,-0.1969,-0.1975,-0.1994,-0.1975,-0.1977,-0.1856,-0.1853,-0.2058,-0.1978,-0.1978,-0.1978,-0.1978,-0.1978,-0.1978,-0.1831,-0.1848,-0.1851,-0.1888,-0.1903,-0.1935,-0.1981,-0.1966,-0.1893,-0.1839,-0.1837,-0.1981,-0.1981,-0.2054,-0.1978,-0.1978,-0.1978,-0.1978,-0.1978,-0.1745,-0.1779,-0.1773,-0.1788,-0.1826,-0.1771,-0.1878,-0.1777,-0.1777,-0.1686,-0.1749,-0.1754,-0.1741,-0.1747,-0.181,-0.1677,-0.1677,-0.1677,-0.1677,-0.1686,-0.1706,-0.1683,-0.1685,-0.1688,-0.1683,-0.1521,-0.1449,-0.1447,-0.141,-0.1422,-0.1366,-0.1383,-0.1349,-0.1365,-0.142,-0.1186,-0.1185,-0.1184,-0.1622,-0.1631,-0.1582,-0.1603,-0.1601,-0.1512,-0.1274,-0.105,-0.0993,-0.1171,-0.1402,-0.1632,-0.1579,-0.1594,-0.1567,-0.1583,-0.1682,0,0]},{"header":{"parameterUnit":"m.s-1","parameterCategory":2,"la1":30.2992,"la2":30.254,"lo1":-89.0895,"lo2":-89.0443,"dy":0.0025,"dx":0.0025,"nx":19,"ny":19,"refTime":"2026-03-25T21:00:00:Z","depth":"2","parameterNumber":3,"parameterNumberName":"V-component_of_CURRENTS"},"data":[0,0,0,-0.0625,-0.0624,-0.0558,-0.0558,-0.0401,-0.04,0,0,0,0,0,0,0,0,0,0,0,-0.0646,-0.0646,-0.0625,-0.0624,-0.0558,-0.0558,-0.0401,-0.04,0,0,0,0,0,0,0,0,0,0,0,-0.0646,-0.0646,-0.0646,-0.0624,-0.0558,-0.0558,-0.0402,-0.0464,0,0,0,0,0,0,0,0,0,0,-0.0535,-0.0569,-0.0646,-0.0646,-0.0624,-0.0558,-0.0557,-0.0468,-0.046,-0.0417,0,-0.0421,0,-0.0415,-0.039,-0.0389,0,0,0,-0.0603,-0.0576,-0.0566,-0.0646,-0.0623,-0.0559,-0.0582,-0.0464,-0.0455,-0.0407,-0.0419,-0.0414,-0.0412,-0.0389,-0.0388,-0.0279,-0.0279,0,0,-0.0607,-0.0619,-0.0572,-0.0561,-0.0623,-0.0584,-0.058,-0.0459,-0.0451,-0.0419,-0.041,-0.041,-0.0388,-0.0386,-0.0279,-0.0279,0,0,0,-0.0631,-0.0622,-0.0615,-0.0567,-0.0565,-0.0583,-0.0578,-0.0456,-0.0457,-0.0409,-0.0408,-0.0387,-0.0385,-0.0279,-0.0279,-0.0346,0,0,0,-0.0632,-0.0638,-0.0617,-0.0621,-0.0569,-0.0519,-0.0578,-0.0465,-0.0452,-0.0409,-0.0387,-0.0383,-0.0279,-0.0279,-0.0344,-0.0375,0,0,0,-0.0646,-0.0638,-0.0639,-0.0623,-0.0605,-0.0522,-0.0514,-0.0462,-0.0452,-0.0389,-0.0383,-0.0279,-0.0279,-0.0343,-0.0372,-0.0316,0,0,0,-0.0649,-0.0667,-0.0639,-0.0655,-0.0606,-0.0584,-0.0515,-0.0483,-0.0438,-0.0386,-0.0279,-0.0279,-0.0342,-0.037,-0.0315,-0.0276,-0.0275,0,0,-0.0678,-0.0671,-0.0682,-0.0656,-0.066,-0.059,-0.0563,-0.0479,-0.0415,-0.0309,-0.0307,-0.0345,-0.0372,-0.0316,-0.0268,-0.0268,0,0,0,-0.0695,-0.0704,-0.07,-0.0694,-0.0664,-0.0618,-0.0539,-0.0488,-0.04,-0.0391,-0.0323,-0.0337,-0.03,-0.0274,-0.0274,-0.0278,-0.0278,-0.0278,-0.0278,-0.0732,-0.0727,-0.0744,-0.0729,-0.0705,-0.0627,-0.0576,-0.0484,-0.0426,-0.0398,-0.0376,-0.0361,-0.0336,-0.0334,-0.0356,-0.0356,-0.0356,-0.0357,-0.0357,-0.0782,-0.0798,-0.0777,-0.0795,-0.0743,-0.0708,-0.0592,-0.0541,-0.0429,-0.0408,-0.0367,-0.0328,-0.0338,-0.0362,-0.0361,-0.036,-0.0359,-0.0359,-0.0359,-0.0812,-0.0822,-0.0831,-0.0848,-0.0825,-0.0759,-0.0691,-0.0601,-0.0486,-0.0456,-0.0352,-0.035,-0.0382,-0.0412,-0.0412,-0.0412,-0.0412,-0.0412,-0.0411,-0.0843,-0.0853,-0.0897,-0.0904,-0.0913,-0.0877,-0.0745,-0.0651,-0.0492,-0.041,-0.0408,-0.0377,-0.0376,-0.0382,-0.041,-0.041,-0.041,-0.0411,-0.0411,-0.0893,-0.0902,-0.097,-0.0998,-0.1008,-0.0973,-0.0841,-0.0609,-0.0483,-0.0386,-0.035,-0.0352,-0.0309,-0.0309,-0.0312,-0.0319,-0.0319,-0.0319,-0.0319,-0.0927,-0.0937,-0.1034,-0.1085,-0.1093,-0.1016,-0.0849,-0.0608,-0.0394,-0.0315,-0.0315,-0.0323,-0.0326,-0.0285,-0.0284,-0.0287,-0.0288,-0.0288,-0.0288,-0.0963,-0.0994,-0.1067,-0.1119,-0.1135,-0.1045,-0.0876,-0.0576,-0.0317,-0.029,-0.0345,-0.031,-0.0323,-0.0327,-0.0263,-0.0263,-0.0266,0,0]}],[{"header":{"parameterUnit":"m.s-1","parameterCategory":2,"la1":30.2992,"la2":30.254,"lo1":-89.0895,"lo2":-89.0443,"dy":0.0025,"dx":0.0025,"nx":19,"ny":19,"refTime":"2026-03-25T21:00:00:Z","depth":"4","parameterNumber":2,"parameterNumberName":"U-component_of_CURRENTS"},"data":[0,0,0,-0.1625,-0.1627,-0.1741,-0.1741,-0.1661,-0.166,0,0,0,0,0,0,0,0,0,0,0,-0.1581,-0.1582,-0.1625,-0.1628,-0.1741,-0.1741,-0.1661,-0.166,0,0,0,0,0,0,0,0,0,0,0,-0.158,-0.1582,-0.1583,-0.1628,-0.1741,-0.1741,-0.1662,-0.163,0,0,0,0,0,0,0,0,0,0,-0.1547,-0.1549,-0.1581,-0.1583,-0.1629,-0.1741,-0.1741,-0.1631,-0.1632,-0.1548,0,-0.1577,0,-0.1617,-0.165,-0.1649,0,0,0,-0.1619,-0.1549,-0.1574,-0.1583,-0.163,-0.1741,-0.1687,-0.1633,-0.1634,-0.1548,-0.1577,-0.1576,-0.1615,-0.1649,-0.1648,-0.1577,-0.1577,0,0,-0.1613,-0.1598,-0.1574,-0.1575,-0.1669,-0.1684,-0.1691,-0.1636,-0.1638,-0.1577,-0.1575,-0.1614,-0.1648,-0.1647,-0.1577,-0.1577,0,0,0,-0.1601,-0.1594,-0.1625,-0.1576,-0.1616,-0.1687,-0.1696,-0.1641,-0.1651,-0.1575,-0.1613,-0.1647,-0.1645,-0.1576,-0.1577,-0.1603,0,0,0,-0.1596,-0.1588,-0.1622,-0.1614,-0.1619,-0.1663,-0.1701,-0.1655,-0.1651,-0.1614,-0.1647,-0.1644,-0.1576,-0.1577,-0.1601,-0.159,0,0,0,-0.1574,-0.1585,-0.1601,-0.1613,-0.1667,-0.1666,-0.1674,-0.1656,-0.1672,-0.1649,-0.1644,-0.1576,-0.1577,-0.16,-0.1588,-0.1558,0,0,0,-0.1549,-0.1552,-0.1601,-0.1608,-0.1666,-0.1694,-0.1676,-0.1698,-0.1686,-0.1646,-0.1576,-0.1577,-0.16,-0.1588,-0.1557,-0.1334,0,0,0,-0.1528,-0.155,-0.1549,-0.1595,-0.1617,-0.1677,-0.1688,-0.1676,-0.1663,-0.1575,-0.1576,-0.1602,-0.1588,-0.1558,-0.138,0,0,0,0,-0.1524,-0.1531,-0.1543,-0.1577,-0.1612,-0.1658,-0.1677,-0.1682,-0.1671,-0.1663,-0.161,-0.16,-0.1579,-0.145,-0.158,-0.158,-0.158,-0.158,-0.158,-0.1476,-0.15,-0.1509,-0.155,-0.1576,-0.1641,-0.1663,-0.1673,-0.1655,-0.1676,-0.1628,-0.1629,-0.1497,-0.1647,-0.1648,-0.1648,-0.1648,-0.1648,-0.1648,-0.1438,-0.1435,-0.1491,-0.1511,-0.1568,-0.1593,-0.1633,-0.166,-0.1646,-0.1658,-0.1638,-0.1496,-0.1651,-0.165,-0.165,-0.1649,-0.1649,-0.1649,-0.1649,-0.1392,-0.1392,-0.1432,-0.1478,-0.1527,-0.1585,-0.1573,-0.1633,-0.1649,-0.1646,-0.1476,-0.1627,-0.1613,-0.1632,-0.1632,-0.1632,-0.1632,-0.1632,-0.1632,-0.1319,-0.1357,-0.1375,-0.1442,-0.1464,-0.1499,-0.1548,-0.1518,-0.1562,-0.1459,-0.1639,-0.1623,-0.1623,-0.1611,-0.1629,-0.163,-0.163,-0.163,-0.163,-0.1226,-0.1272,-0.1273,-0.1296,-0.1321,-0.1323,-0.1414,-0.1328,-0.1277,-0.1214,-0.1346,-0.1361,-0.1316,-0.1323,-0.1299,-0.1225,-0.1222,-0.1219,0,-0.116,-0.1185,-0.1149,-0.1123,-0.1083,-0.1175,-0.1038,-0.104,-0.1091,-0.1064,-0.1269,-0.142,-0.1429,-0.1383,-0.1385,-0.1357,0,0,0,-0.1093,-0.1092,-0.1015,-0.1001,-0.0939,-0.0909,-0.0979,-0.0916,-0.1128,-0.1001,-0.1147,-0.1166,-0.142,-0.1622,-0.1587,-0.1588,-0.1566,0,0]},{"header":{"parameterUnit":"m.s-1","parameterCategory":2,"la1":30.2992,"la2":30.254,"lo1":-89.0895,"lo2":-89.0443,"dy":0.0025,"dx":0.0025,"nx":19,"ny":19,"refTime":"2026-03-25T21:00:00:Z","depth":"4","parameterNumber":3,"parameterNumberName":"V-component_of_CURRENTS"},"data":[0,0,0,-0.0507,-0.0507,-0.0492,-0.0492,-0.0449,-0.0449,0,0,0,0,0,0,0,0,0,0,0,-0.0513,-0.0514,-0.0507,-0.0507,-0.0492,-0.0492,-0.0449,-0.0449,0,0,0,0,0,0,0,0,0,0,0,-0.0513,-0.0514,-0.0514,-0.0507,-0.0492,-0.0492,-0.0449,-0.0463,0,0,0,0,0,0,0,0,0,0,-0.0479,-0.0492,-0.0513,-0.0514,-0.0507,-0.0492,-0.0492,-0.0464,-0.0462,-0.0453,0,-0.0463,0,-0.046,-0.0447,-0.0447,0,0,0,-0.0493,-0.0493,-0.0494,-0.0514,-0.0507,-0.0492,-0.0495,-0.0463,-0.0461,-0.0451,-0.0463,-0.0461,-0.046,-0.0446,-0.0446,-0.0368,-0.0368,0,0,-0.0494,-0.0502,-0.0495,-0.0493,-0.0519,-0.0496,-0.0495,-0.0462,-0.0463,-0.0462,-0.046,-0.0459,-0.0446,-0.0446,-0.0369,-0.0368,0,0,0,-0.0506,-0.0503,-0.0504,-0.0495,-0.0497,-0.0495,-0.0494,-0.0465,-0.0467,-0.046,-0.0458,-0.0446,-0.0446,-0.037,-0.0369,-0.042,0,0,0,-0.0505,-0.0511,-0.0505,-0.0508,-0.0498,-0.0484,-0.0498,-0.0469,-0.0465,-0.0459,-0.0446,-0.0445,-0.037,-0.0369,-0.042,-0.0464,0,0,0,-0.0511,-0.0511,-0.0515,-0.0509,-0.0509,-0.0484,-0.0484,-0.0468,-0.0465,-0.0447,-0.0445,-0.0371,-0.0369,-0.042,-0.0463,-0.0459,0,0,0,-0.0511,-0.0525,-0.0515,-0.0531,-0.0509,-0.0503,-0.0484,-0.0476,-0.0463,-0.0446,-0.037,-0.0369,-0.042,-0.0462,-0.0459,-0.0481,0,0,0,-0.0528,-0.0528,-0.0537,-0.0528,-0.0539,-0.0503,-0.0491,-0.047,-0.043,-0.0379,-0.0377,-0.042,-0.0462,-0.0459,-0.0393,0,0,0,0,-0.0541,-0.055,-0.0551,-0.0557,-0.0545,-0.053,-0.0495,-0.0461,-0.0408,-0.0418,-0.0375,-0.04,-0.0397,-0.0405,-0.0362,-0.0362,-0.0362,-0.0362,-0.0362,-0.056,-0.0563,-0.0583,-0.0583,-0.0577,-0.0539,-0.0513,-0.0451,-0.0418,-0.0384,-0.0408,-0.0398,-0.0403,-0.0357,-0.0357,-0.0357,-0.0357,-0.0357,-0.0357,-0.0592,-0.0609,-0.0612,-0.0637,-0.062,-0.0607,-0.0531,-0.0495,-0.0432,-0.0399,-0.0393,-0.0416,-0.0361,-0.036,-0.036,-0.0359,-0.0359,-0.0359,-0.0359,-0.0607,-0.0619,-0.0642,-0.0684,-0.0694,-0.0663,-0.0654,-0.058,-0.0489,-0.0481,-0.0461,-0.0424,-0.0458,-0.0469,-0.0469,-0.0469,-0.0469,-0.0469,-0.0469,-0.0619,-0.0641,-0.07,-0.0736,-0.0772,-0.0783,-0.073,-0.0692,-0.0598,-0.0525,-0.0496,-0.0435,-0.0431,-0.0462,-0.0472,-0.0471,-0.0471,-0.0471,-0.0471,-0.0646,-0.0671,-0.0753,-0.0806,-0.088,-0.0877,-0.0842,-0.0741,-0.0693,-0.0623,-0.0528,-0.0525,-0.051,-0.0505,-0.0538,-0.0571,-0.0571,-0.0572,0,-0.067,-0.0686,-0.081,-0.0898,-0.0952,-0.0932,-0.088,-0.0821,-0.0689,-0.0664,-0.0692,-0.059,-0.0585,-0.0574,-0.0569,-0.0611,0,0,0,-0.0701,-0.0736,-0.0829,-0.0921,-0.0984,-0.0903,-0.086,-0.0816,-0.0697,-0.0668,-0.0581,-0.0578,-0.0594,-0.048,-0.0448,-0.0444,-0.0492,0,0]}]]